^^
Datos históricos de la estación: Murcia-Puente Tocinos
Diario Informe para Enero 2, 2019 Unidades:  Métrico    Inglés   Ambas
Diario Semanal Mensual Anual Configurable
  Máximo: Mínimo: Media:
Temperatura: 19.7 °C 4.3 °C 10.9 °C
Punto de rocio: 8.3 °C 0.1 °C 3.3 °C
Humedad: 85% 28% 64%
Velocidad viento: 19.3km/h 0.0km/h 6.5km/h
Racha viento: 27.4km/h - -
Viento- - South
Presión: 1027.7 hPa 1022.2 hPa -
Precipitación: 0.0 mm    
Historical Graphs
 
 
Tabla de datos para Enero 2, 2019
Hora Temperatura Punto de rocio Presión Viento Velocidad viento Racha viento Humedad Intensidad lluvia(por hora) Nubes
00:00 9.5 °C 5.5 °C 1027.7 hPa SSW 8.0 km/h 11.3 km/h 76% 0.0 mm CLR
00:05 9.4 °C 5.2 °C 1027.6 hPa South 7.6 km/h 9.5 km/h 75% 0.0 mm CLR
00:10 9.3 °C 4.9 °C 1027.6 hPa South 7.6 km/h 9.5 km/h 74% 0.0 mm CLR
00:15 9.2 °C 5.0 °C 1027.6 hPa South 7.6 km/h 9.3 km/h 75% 0.0 mm CLR
00:20 9.1 °C 4.7 °C 1027.6 hPa South 7.6 km/h 11.1 km/h 74% 0.0 mm CLR
00:25 9.1 °C 4.5 °C 1027.6 hPa SSW 7.6 km/h 9.3 km/h 73% 0.0 mm CLR
00:30 9.1 °C 4.5 °C 1027.6 hPa SSW 8.0 km/h 11.3 km/h 73% 0.0 mm CLR
00:35 9.2 °C 4.6 °C 1027.7 hPa SSW 6.9 km/h 7.4 km/h 73% 0.0 mm CLR
00:40 9.2 °C 4.6 °C 1027.7 hPa SW 6.4 km/h 8.4 km/h 73% 0.0 mm CLR
00:45 9.1 °C 4.5 °C 1027.7 hPa WSW 6.4 km/h 7.4 km/h 73% 0.0 mm CLR
00:50 8.9 °C 4.3 °C 1027.6 hPa SW 4.8 km/h 9.7 km/h 73% 0.0 mm CLR
00:55 8.9 °C 4.5 °C 1027.6 hPa SW 5.8 km/h 11.1 km/h 74% 0.0 mm CLR
01:00 8.8 °C 4.4 °C 1027.6 hPa SW 8.0 km/h 9.7 km/h 74% 0.0 mm CLR
01:05 8.7 °C 4.5 °C 1027.5 hPa SSW 6.4 km/h 9.5 km/h 75% 0.0 mm CLR
01:10 8.7 °C 4.7 °C 1027.5 hPa SW 6.4 km/h 7.4 km/h 76% 0.0 mm CLR
01:15 8.7 °C 4.9 °C 1027.5 hPa SSW 6.4 km/h 10.0 km/h 77% 0.0 mm CLR
01:20 8.6 °C 4.8 °C 1027.4 hPa SSW 8.0 km/h 9.7 km/h 77% 0.0 mm CLR
01:25 8.6 °C 4.8 °C 1027.4 hPa SSW 6.4 km/h 9.3 km/h 77% 0.0 mm CLR
01:30 8.6 °C 4.9 °C 1027.4 hPa SW 8.0 km/h 9.7 km/h 78% 0.0 mm CLR
01:35 8.4 °C 4.8 °C 1027.4 hPa SW 6.9 km/h 9.3 km/h 78% 0.0 mm CLR
01:40 8.4 °C 4.8 °C 1027.4 hPa SW 8.0 km/h 9.7 km/h 78% 0.0 mm CLR
01:45 8.3 °C 4.7 °C 1027.4 hPa SW 8.0 km/h 9.7 km/h 78% 0.0 mm CLR
01:50 8.2 °C 4.4 °C 1027.4 hPa SW 5.8 km/h 7.4 km/h 77% 0.0 mm CLR
01:55 8.2 °C 4.4 °C 1027.4 hPa SW 5.8 km/h 7.4 km/h 77% 0.0 mm CLR
02:00 8.2 °C 4.2 °C 1027.4 hPa SW 4.8 km/h 9.7 km/h 76% 0.0 mm CLR
02:05 8.1 °C 4.1 °C 1027.4 hPa SSW 5.0 km/h 3.9 km/h 76% 0.0 mm CLR
02:10 8.0 °C 4.0 °C 1027.4 hPa SW 3.2 km/h 7.4 km/h 76% 0.0 mm CLR
02:15 7.9 °C 3.3 °C 1027.4 hPa SSW 3.2 km/h 9.3 km/h 73% 0.0 mm CLR
02:20 7.9 °C 3.3 °C 1027.3 hPa SW 5.0 km/h 7.4 km/h 73% 0.0 mm CLR
02:25 7.9 °C 3.3 °C 1027.3 hPa South 5.0 km/h 10.0 km/h 73% 0.0 mm CLR
02:30 7.7 °C 3.3 °C 1027.3 hPa SSE 6.4 km/h 9.3 km/h 74% 0.0 mm CLR
02:35 7.4 °C 3.1 °C 1027.3 hPa SW 6.4 km/h 9.3 km/h 74% 0.0 mm CLR
02:40 7.3 °C 3.2 °C 1027.3 hPa SSW 7.6 km/h 7.6 km/h 75% 0.0 mm CLR
02:45 7.3 °C 3.2 °C 1027.3 hPa SW 7.6 km/h 11.1 km/h 75% 0.0 mm CLR
02:50 7.3 °C 3.2 °C 1027.3 hPa SSW 6.9 km/h 7.4 km/h 75% 0.0 mm CLR
02:55 7.3 °C 3.2 °C 1027.3 hPa SSW 6.9 km/h 6.4 km/h 75% 0.0 mm CLR
03:00 7.3 °C 3.2 °C 1027.3 hPa SSW 4.8 km/h 8.0 km/h 75% 0.0 mm CLR
03:05 7.2 °C 3.1 °C 1027.4 hPa SSW 5.0 km/h 7.6 km/h 75% 0.0 mm CLR
03:10 7.2 °C 2.9 °C 1027.4 hPa South 5.0 km/h 7.4 km/h 74% 0.0 mm CLR
03:15 7.2 °C 2.9 °C 1027.4 hPa South 5.0 km/h 5.6 km/h 74% 0.0 mm CLR
03:20 7.1 °C 2.8 °C 1027.4 hPa South 4.7 km/h 7.4 km/h 74% 0.0 mm CLR
03:25 7.0 °C 2.9 °C 1027.4 hPa South 3.2 km/h 9.7 km/h 75% 0.0 mm CLR
03:30 6.8 °C 2.5 °C 1027.4 hPa SSE 5.8 km/h 7.4 km/h 74% 0.0 mm CLR
03:35 6.6 °C 2.5 °C 1027.4 hPa SSE 5.8 km/h 9.3 km/h 75% 0.0 mm CLR
03:40 6.3 °C 2.2 °C 1027.4 hPa SSE 6.9 km/h 9.3 km/h 75% 0.0 mm CLR
03:45 6.0 °C 2.1 °C 1027.4 hPa SSE 8.0 km/h 11.3 km/h 76% 0.0 mm CLR
03:50 5.8 °C 1.9 °C 1027.3 hPa SSE 8.4 km/h 9.3 km/h 76% 0.0 mm CLR
03:55 5.7 °C 2.0 °C 1027.3 hPa SSE 8.0 km/h 9.7 km/h 77% 0.0 mm CLR
04:00 5.6 °C 2.1 °C 1027.3 hPa SSE 8.0 km/h 11.3 km/h 78% 0.0 mm CLR
04:05 5.6 °C 2.1 °C 1027.0 hPa South 7.6 km/h 9.3 km/h 78% 0.0 mm CLR
04:10 5.7 °C 2.2 °C 1027.0 hPa South 6.9 km/h 9.3 km/h 78% 0.0 mm CLR
04:15 5.8 °C 2.1 °C 1027.0 hPa South 6.9 km/h 11.1 km/h 77% 0.0 mm CLR
04:20 5.9 °C 2.0 °C 1026.8 hPa South 8.0 km/h 9.7 km/h 76% 0.0 mm CLR
04:25 5.9 °C 2.0 °C 1026.8 hPa South 7.6 km/h 7.4 km/h 76% 0.0 mm CLR
04:30 5.9 °C 2.0 °C 1026.8 hPa South 4.8 km/h 9.7 km/h 76% 0.0 mm CLR
04:35 5.9 °C 2.0 °C 1026.6 hPa SSE 5.8 km/h 11.1 km/h 76% 0.0 mm CLR
04:40 5.8 °C 2.1 °C 1026.6 hPa South 6.9 km/h 11.1 km/h 77% 0.0 mm CLR
04:45 5.8 °C 2.1 °C 1026.6 hPa SSW 6.9 km/h 9.3 km/h 77% 0.0 mm CLR
04:50 5.8 °C 2.1 °C 1026.4 hPa SSW 8.0 km/h 9.7 km/h 77% 0.0 mm CLR
04:55 5.8 °C 2.1 °C 1026.4 hPa SSW 6.4 km/h 5.6 km/h 77% 0.0 mm CLR
05:00 5.8 °C 1.9 °C 1026.4 hPa SSW 3.2 km/h 6.4 km/h 76% 0.0 mm CLR
05:05 5.7 °C 1.8 °C 1026.3 hPa SSE 4.7 km/h 7.4 km/h 76% 0.0 mm CLR
05:10 5.6 °C 1.7 °C 1026.3 hPa SSE 4.8 km/h 9.7 km/h 76% 0.0 mm CLR
05:15 5.3 °C 1.6 °C 1026.3 hPa SSW 5.0 km/h 9.3 km/h 77% 0.0 mm CLR
05:20 5.2 °C 1.7 °C 1026.2 hPa South 6.9 km/h 9.3 km/h 78% 0.0 mm CLR
05:25 5.1 °C 1.4 °C 1026.2 hPa South 6.9 km/h 9.3 km/h 77% 0.0 mm CLR
05:30 5.1 °C 1.4 °C 1026.2 hPa SSW 6.9 km/h 9.3 km/h 77% 0.0 mm CLR
05:35 5.2 °C 1.3 °C 1026.0 hPa SSW 6.9 km/h 11.1 km/h 76% 0.0 mm CLR
05:40 5.3 °C 1.2 °C 1026.0 hPa SSW 6.4 km/h 7.4 km/h 75% 0.0 mm CLR
05:45 5.4 °C 1.1 °C 1026.0 hPa South 6.4 km/h 11.1 km/h 74% 0.0 mm CLR
05:50 5.4 °C 1.1 °C 1025.9 hPa SSW 6.9 km/h 9.3 km/h 74% 0.0 mm CLR
05:55 5.5 °C 1.2 °C 1025.9 hPa SSW 6.9 km/h 8.4 km/h 74% 0.0 mm CLR
06:00 5.6 °C 1.1 °C 1025.9 hPa SSW 8.0 km/h 9.7 km/h 73% 0.0 mm CLR
06:05 5.5 °C 1.1 °C 1025.9 hPa South 6.9 km/h 9.3 km/h 73% 0.0 mm CLR
06:10 5.5 °C 1.1 °C 1025.9 hPa South 6.4 km/h 9.3 km/h 73% 0.0 mm CLR
06:15 5.4 °C 0.9 °C 1025.9 hPa South 8.0 km/h 9.7 km/h 73% 0.0 mm CLR
06:20 5.5 °C 1.1 °C 1025.8 hPa SSW 5.8 km/h 7.4 km/h 73% 0.0 mm CLR
06:25 5.5 °C 1.1 °C 1025.8 hPa South 5.8 km/h 7.4 km/h 73% 0.0 mm CLR
06:30 5.4 °C 0.9 °C 1025.8 hPa South 4.8 km/h 9.7 km/h 73% 0.0 mm CLR
06:35 5.4 °C 0.9 °C 1025.6 hPa South 5.8 km/h 9.3 km/h 73% 0.0 mm CLR
06:40 5.4 °C 0.9 °C 1025.6 hPa South 8.0 km/h 9.7 km/h 73% 0.0 mm CLR
06:45 5.3 °C 0.9 °C 1025.6 hPa South 8.0 km/h 9.7 km/h 73% 0.0 mm CLR
06:50 5.4 °C 0.9 °C 1025.7 hPa South 6.4 km/h 11.1 km/h 73% 0.0 mm CLR
06:55 5.3 °C 0.8 °C 1025.7 hPa South 6.4 km/h 7.4 km/h 73% 0.0 mm CLR
07:00 5.3 °C 0.8 °C 1025.7 hPa South 8.0 km/h 9.7 km/h 73% 0.0 mm CLR
07:05 5.4 °C 0.9 °C 1025.6 hPa SSW 6.9 km/h 9.3 km/h 73% 0.0 mm CLR
07:10 5.4 °C 1.0 °C 1025.6 hPa South 8.0 km/h 9.7 km/h 73% 0.0 mm CLR
07:15 5.4 °C 0.9 °C 1025.6 hPa South 6.9 km/h 7.4 km/h 73% 0.0 mm CLR
07:20 5.5 °C 0.8 °C 1025.6 hPa SSW 5.8 km/h 7.4 km/h 72% 0.0 mm CLR
07:25 5.6 °C 0.9 °C 1025.6 hPa South 5.8 km/h 7.4 km/h 72% 0.0 mm CLR
07:30 5.6 °C 0.8 °C 1025.6 hPa SSW 5.8 km/h 5.6 km/h 71% 0.0 mm CLR
07:35 5.6 °C 0.8 °C 1025.5 hPa SSW 5.8 km/h 5.6 km/h 71% 0.0 mm CLR
07:40 5.6 °C 0.9 °C 1025.5 hPa SSW 3.2 km/h 6.4 km/h 72% 0.0 mm CLR
07:45 5.4 °C 0.8 °C 1025.5 hPa NNW 3.2 km/h 4.7 km/h 72% 0.0 mm CLR
07:50 5.3 °C 0.7 °C 1025.8 hPa NNW 3.2 km/h 4.8 km/h 72% 0.0 mm CLR
07:55 5.1 °C 0.7 °C 1025.8 hPa NNW 2.9 km/h   73% 0.0 mm CLR
08:00 4.9 °C 0.7 °C 1025.8 hPa Calm     74% 0.0 mm CLR
08:05 4.7 °C 0.7 °C 1025.9 hPa Calm     75% 0.0 mm CLR
08:10 4.6 °C 0.3 °C 1025.9 hPa Calm   5.6 km/h 74% 0.0 mm CLR
08:15 5.0 °C 0.2 °C 1025.9 hPa Calm   9.3 km/h 71% 0.0 mm CLR
08:20 5.2 °C 0.4 °C 1025.9 hPa WSW 4.8 km/h 9.7 km/h 71% 0.0 mm CLR
08:25 5.3 °C 0.4 °C 1025.9 hPa SW 5.0 km/h 9.3 km/h 71% 0.0 mm CLR
08:30 5.3 °C 0.4 °C 1025.9 hPa SW 6.9 km/h 7.4 km/h 71% 0.0 mm CLR
08:35 5.3 °C 0.3 °C 1026.1 hPa SW 6.9 km/h 5.6 km/h 70% 0.0 mm CLR
08:40 5.4 °C 0.6 °C 1026.1 hPa SW 4.7 km/h 5.6 km/h 71% 0.0 mm CLR
08:45 5.2 °C 0.6 °C 1026.1 hPa SSE 4.7 km/h 7.4 km/h 72% 0.0 mm CLR
08:50 4.9 °C 0.4 °C 1026.2 hPa SSE 4.8 km/h 11.3 km/h 73% 0.0 mm CLR
08:55 4.5 °C 0.4 °C 1026.2 hPa SE 5.0 km/h 12.2 km/h 75% 0.0 mm CLR
09:00 4.3 °C 0.4 °C 1026.2 hPa SE 8.0 km/h 12.9 km/h 76% 0.0 mm CLR
09:05 4.4 °C 0.7 °C 1026.4 hPa SSE 6.4 km/h 9.3 km/h 77% 0.0 mm CLR
09:10 4.4 °C 0.6 °C 1026.4 hPa SSE 5.8 km/h 9.3 km/h 76% 0.0 mm CLR
09:15 4.5 °C 0.6 °C 1026.4 hPa SSE 5.8 km/h 9.3 km/h 76% 0.0 mm CLR
09:20 4.7 °C 0.8 °C 1026.4 hPa SSE 6.4 km/h 9.5 km/h 76% 0.0 mm CLR
09:25 4.8 °C 0.7 °C 1026.4 hPa SSE 6.4 km/h 7.4 km/h 75% 0.0 mm CLR
09:30 5.0 °C 0.9 °C 1026.4 hPa ESE 6.4 km/h 8.4 km/h 75% 0.0 mm CLR
09:35 5.3 °C 1.1 °C 1026.5 hPa SE 6.4 km/h 7.4 km/h 74% 0.0 mm CLR
09:40 5.6 °C 1.3 °C 1026.5 hPa ESE 5.0 km/h 7.6 km/h 74% 0.0 mm CLR
09:45 5.7 °C 1.2 °C 1026.5 hPa SE 5.0 km/h 5.8 km/h 73% 0.0 mm CLR
09:50 5.8 °C 1.3 °C 1026.7 hPa SE 4.8 km/h 8.0 km/h 73% 0.0 mm CLR
09:55 6.1 °C 1.4 °C 1026.7 hPa SSE 5.0 km/h 7.4 km/h 72% 0.0 mm CLR
10:00 6.3 °C 1.6 °C 1026.7 hPa SSE 4.8 km/h 9.7 km/h 72% 0.0 mm CLR
10:05 6.5 °C 1.4 °C 1026.7 hPa SSW 5.0 km/h 9.3 km/h 70% 0.0 mm CLR
10:10 6.8 °C 1.5 °C 1026.7 hPa SW 5.8 km/h 7.4 km/h 69% 0.0 mm CLR
10:15 7.2 °C 1.7 °C 1026.7 hPa SW 5.8 km/h 5.6 km/h 68% 0.0 mm CLR
10:20 7.6 °C 1.4 °C 1026.7 hPa South 5.0 km/h 7.4 km/h 65% 0.0 mm CLR
10:25 8.1 °C 1.7 °C 1026.7 hPa South 5.0 km/h 7.4 km/h 64% 0.0 mm CLR
10:30 8.6 °C 1.7 °C 1026.7 hPa SW 4.7 km/h 7.4 km/h 62% 0.0 mm CLR
10:35 8.9 °C 1.6 °C 1026.7 hPa SSW 4.7 km/h 7.4 km/h 60% 0.0 mm CLR
10:40 9.2 °C 1.6 °C 1026.7 hPa South 4.8 km/h 9.7 km/h 59% 0.0 mm CLR
10:45 9.8 °C 1.7 °C 1026.7 hPa SSW 5.0 km/h 7.6 km/h 57% 0.0 mm CLR
10:50 9.9 °C 1.0 °C 1026.5 hPa SW 5.0 km/h 9.3 km/h 54% 0.0 mm CLR
10:55 10.2 °C 0.8 °C 1026.5 hPa SW 5.0 km/h 7.4 km/h 52% 0.0 mm CLR
11:00 10.4 °C 0.4 °C 1026.5 hPa SW 3.2 km/h 8.0 km/h 50% 0.0 mm CLR
11:05 10.7 °C 0.1 °C 1026.4 hPa WNW 4.7 km/h 5.8 km/h 48% 0.0 mm CLR
11:10 10.9 °C 0.6 °C 1026.4 hPa West 3.2 km/h 8.0 km/h 49% 0.0 mm CLR
11:15 11.7 °C 0.7 °C 1026.4 hPa WNW 3.9 km/h   47% 0.0 mm CLR
11:20 12.2 °C 0.6 °C 1026.1 hPa WNW 1.6 km/h 3.2 km/h 45% 0.0 mm CLR
11:25 12.6 °C 0.7 °C 1026.1 hPa WNW 2.3 km/h 3.7 km/h 44% 0.0 mm CLR
11:30 12.7 °C 0.7 °C 1026.1 hPa WNW 1.6 km/h 4.8 km/h 44% 0.0 mm CLR
11:35 12.7 °C 1.1 °C 1025.8 hPa WNW 2.3 km/h 3.7 km/h 45% 0.0 mm CLR
11:40 12.8 °C 1.5 °C 1025.8 hPa SW 3.2 km/h 8.0 km/h 46% 0.0 mm CLR
11:45 13.1 °C 1.4 °C 1025.8 hPa SSW 2.9 km/h 7.6 km/h 45% 0.0 mm CLR
11:50 13.3 °C 1.3 °C 1025.7 hPa South 3.2 km/h 8.0 km/h 44% 0.0 mm CLR
11:55 13.6 °C 1.6 °C 1025.7 hPa South 4.7 km/h 7.4 km/h 44% 0.0 mm CLR
12:00 13.8 °C 1.8 °C 1025.7 hPa SSW 4.8 km/h 11.3 km/h 44% 0.0 mm CLR
12:05 14.2 °C 1.4 °C 1025.2 hPa SSW 5.0 km/h 7.4 km/h 42% 0.0 mm CLR
12:10 14.6 °C 1.8 °C 1025.2 hPa SSE 6.4 km/h 7.4 km/h 42% 0.0 mm CLR
12:15 14.9 °C 1.8 °C 1025.2 hPa SSE 6.4 km/h 9.3 km/h 41% 0.0 mm CLR
12:20 15.2 °C 2.0 °C 1024.9 hPa SSW 5.8 km/h 9.3 km/h 41% 0.0 mm CLR
12:25 15.3 °C 2.1 °C 1024.9 hPa SW 5.8 km/h 11.1 km/h 41% 0.0 mm CLR
12:30 15.6 °C 2.1 °C 1024.9 hPa SSW 6.4 km/h 9.3 km/h 40% 0.0 mm CLR
12:35 15.8 °C 1.8 °C 1024.5 hPa SSW 6.4 km/h 11.1 km/h 39% 0.0 mm CLR
12:40 15.9 °C 1.6 °C 1024.5 hPa SW 7.6 km/h 14.8 km/h 38% 0.0 mm CLR
12:45 16.1 °C 1.8 °C 1024.5 hPa WSW 7.6 km/h 17.2 km/h 38% 0.0 mm CLR
12:50 16.2 °C 1.5 °C 1024.3 hPa West 10.0 km/h 11.1 km/h 37% 0.0 mm CLR
12:55 16.4 °C 1.7 °C 1024.3 hPa South 10.0 km/h 9.3 km/h 37% 0.0 mm CLR
13:00 16.6 °C 1.4 °C 1024.3 hPa SW 8.0 km/h 16.1 km/h 36% 0.0 mm CLR
13:05 16.8 °C 1.2 °C 1024.0 hPa SSW 7.6 km/h 13.0 km/h 35% 0.0 mm CLR
13:10 17.0 °C 1.4 °C 1024.0 hPa SSW 9.7 km/h 14.5 km/h 35% 0.0 mm CLR
13:15 17.2 °C 1.2 °C 1024.0 hPa SSW 9.5 km/h 11.1 km/h 34% 0.0 mm CLR
13:20 17.3 °C 1.3 °C 1023.7 hPa SW 8.7 km/h 11.1 km/h 34% 0.0 mm CLR
13:25 17.5 °C 1.1 °C 1023.7 hPa WSW 8.7 km/h 9.3 km/h 33% 0.0 mm CLR
13:30 17.7 °C 0.8 °C 1023.7 hPa WSW 8.0 km/h 16.1 km/h 32% 0.0 mm CLR
13:35 17.7 °C 0.8 °C 1023.5 hPa SW 7.6 km/h 14.0 km/h 32% 0.0 mm CLR
13:40 17.8 °C 0.9 °C 1023.5 hPa WSW 8.7 km/h 11.1 km/h 32% 0.0 mm CLR
13:45 18.0 °C 0.6 °C 1023.5 hPa SW 8.7 km/h 14.8 km/h 31% 0.0 mm CLR
13:50 18.2 °C 0.8 °C 1023.3 hPa SW 9.5 km/h 13.0 km/h 31% 0.0 mm CLR
13:55 18.3 °C 0.9 °C 1023.3 hPa WSW 9.5 km/h 11.1 km/h 31% 0.0 mm CLR
14:00 18.4 °C 0.5 °C 1023.3 hPa SW 9.7 km/h 14.5 km/h 30% 0.0 mm CLR
14:05 18.4 °C 0.9 °C 1023.0 hPa WSW 8.7 km/h 11.1 km/h 31% 0.0 mm CLR
14:10 18.4 °C 0.9 °C 1023.0 hPa WSW 10.0 km/h 14.8 km/h 31% 0.0 mm CLR
14:15 18.5 °C 1.1 °C 1023.0 hPa SW 10.0 km/h 14.8 km/h 31% 0.0 mm CLR
14:20 18.4 °C 0.9 °C 1022.9 hPa SW 9.5 km/h 16.7 km/h 31% 0.0 mm CLR
14:25 18.4 °C 0.9 °C 1022.9 hPa SSE 9.5 km/h 13.0 km/h 31% 0.0 mm CLR
14:30 18.6 °C 1.1 °C 1022.9 hPa SW 11.3 km/h 16.1 km/h 31% 0.0 mm CLR
14:35 18.6 °C 1.1 °C 1022.7 hPa SSW 10.3 km/h 11.1 km/h 31% 0.0 mm CLR
14:40 18.7 °C 1.2 °C 1022.7 hPa WSW 10.0 km/h 13.0 km/h 31% 0.0 mm CLR
14:45 18.8 °C 0.8 °C 1022.7 hPa SSW 10.0 km/h 11.1 km/h 30% 0.0 mm CLR
14:50 18.9 °C 0.9 °C 1022.5 hPa SSW 8.4 km/h 13.0 km/h 30% 0.0 mm CLR
14:55 19.0 °C 1.0 °C 1022.5 hPa SSW 8.4 km/h 11.1 km/h 30% 0.0 mm CLR
15:00 19.0 °C 1.0 °C 1022.5 hPa SSW 8.0 km/h 12.9 km/h 30% 0.0 mm CLR
15:05 18.9 °C 0.9 °C 1022.3 hPa SW 8.4 km/h 13.0 km/h 30% 0.0 mm CLR
15:10 18.9 °C 0.9 °C 1022.3 hPa South 10.0 km/h 11.1 km/h 30% 0.0 mm CLR
15:15 19.0 °C 1.0 °C 1022.3 hPa SSW 10.0 km/h 11.1 km/h 30% 0.0 mm CLR
15:20 19.0 °C 0.6 °C 1022.3 hPa South 8.4 km/h 14.0 km/h 29% 0.0 mm FEW
15:25 19.1 °C 0.6 °C 1022.3 hPa SW 8.4 km/h 13.0 km/h 29% 0.0 mm
15:30 19.1 °C 1.1 °C 1022.3 hPa SSW 9.7 km/h 14.5 km/h 30% 0.0 mm FEW
15:35 19.2 °C 0.7 °C 1022.2 hPa SSW 9.5 km/h 11.1 km/h 29% 0.0 mm
15:40 19.2 °C 0.7 °C 1022.2 hPa SSW 8.4 km/h 13.0 km/h 29% 0.0 mm FEW
15:45 19.3 °C 0.8 °C 1022.2 hPa SSW 8.4 km/h 9.3 km/h 29% 0.0 mm
15:50 19.3 °C 0.8 °C 1022.2 hPa SSE 8.4 km/h 7.4 km/h 29% 0.0 mm FEW
15:55 19.4 °C 0.9 °C 1022.2 hPa South 8.4 km/h 11.1 km/h 29% 0.0 mm
16:00 19.4 °C 0.9 °C 1022.2 hPa SSE 8.0 km/h 9.7 km/h 29% 0.0 mm CLR
16:05 19.4 °C 0.4 °C 1022.3 hPa South 6.4 km/h 9.3 km/h 28% 0.0 mm
16:10 19.6 °C 1.1 °C 1022.3 hPa SSE 4.7 km/h 7.4 km/h 29% 0.0 mm FEW
16:15 19.7 °C 1.2 °C 1022.3 hPa SE 4.7 km/h 7.6 km/h 29% 0.0 mm
16:20 19.7 °C 1.2 °C 1022.4 hPa South 5.0 km/h 7.4 km/h 29% 0.0 mm CLR
16:25 19.7 °C 0.7 °C 1022.4 hPa South 5.0 km/h 8.4 km/h 28% 0.0 mm CLR
16:30 19.7 °C 0.7 °C 1022.4 hPa South 8.0 km/h 8.0 km/h 28% 0.0 mm CLR
16:35 19.7 °C 0.7 °C 1022.5 hPa SE 6.4 km/h 7.4 km/h 28% 0.0 mm CLR
16:40 19.7 °C 0.7 °C 1022.5 hPa SSE 4.7 km/h 8.4 km/h 28% 0.0 mm CLR
16:45 19.7 °C 0.7 °C 1022.5 hPa South 4.7 km/h 9.3 km/h 28% 0.0 mm CLR
16:50 19.7 °C 0.7 °C 1022.5 hPa SSE 5.8 km/h 7.4 km/h 28% 0.0 mm FEW
16:55 19.6 °C 1.1 °C 1022.5 hPa SE 5.8 km/h 7.6 km/h 29% 0.0 mm
17:00 19.6 °C 1.1 °C 1022.5 hPa SSE 4.8 km/h 9.7 km/h 29% 0.0 mm CLR
17:05 19.5 °C 1.0 °C 1022.7 hPa SSE 5.8 km/h 7.4 km/h 29% 0.0 mm
17:10 19.6 °C 1.1 °C 1022.7 hPa SSE 4.8 km/h 8.0 km/h 29% 0.0 mm FEW
17:15 19.4 °C 0.9 °C 1022.7 hPa SSE 5.0 km/h 7.4 km/h 29% 0.0 mm
17:20 19.2 °C 1.7 °C 1022.9 hPa NE 3.9 km/h 18.5 km/h 31% 0.0 mm FEW
17:25 18.4 °C 3.4 °C 1022.9 hPa NE 3.9 km/h 19.0 km/h 37% 0.0 mm
17:30 17.6 °C 5.2 °C 1022.9 hPa NNE 11.3 km/h 27.4 km/h 44% 0.0 mm FEW
17:35 16.3 °C 6.7 °C 1023.2 hPa NNE 11.9 km/h 25.9 km/h 53% 0.0 mm FEW
17:40 15.7 °C 7.2 °C 1023.2 hPa NNE 19.3 km/h 24.1 km/h 57% 0.0 mm FEW
17:45 15.2 °C 7.2 °C 1023.2 hPa WNW 18.0 km/h 24.1 km/h 59% 0.0 mm
17:50 14.9 °C 7.2 °C 1023.4 hPa NE 16.4 km/h 25.9 km/h 60% 0.0 mm FEW
17:55 14.7 °C 7.0 °C 1023.4 hPa ENE 16.4 km/h 20.4 km/h 60% 0.0 mm
18:00 14.6 °C 6.7 °C 1023.4 hPa NE 16.1 km/h 22.5 km/h 59% 0.0 mm CLR
18:05 14.4 °C 6.5 °C 1023.7 hPa NE 16.1 km/h 18.5 km/h 59% 0.0 mm CLR
18:10 14.3 °C 6.4 °C 1023.7 hPa ENE 13.7 km/h 17.2 km/h 59% 0.0 mm FEW
18:15 14.2 °C 6.3 °C 1023.7 hPa ENE 13.7 km/h 13.0 km/h 59% 0.0 mm CLR
18:20 14.1 °C 6.4 °C 1024.0 hPa NE 11.3 km/h 17.7 km/h 60% 0.0 mm FEW
18:25 13.8 °C 6.4 °C 1024.0 hPa NNE 11.1 km/h 13.0 km/h 61% 0.0 mm CLR
18:30 13.6 °C 6.7 °C 1024.0 hPa NE 10.0 km/h 16.7 km/h 63% 0.0 mm FEW
18:35 13.4 °C 6.9 °C 1024.3 hPa NNE 10.0 km/h 16.7 km/h 65% 0.0 mm CLR
18:40 13.3 °C 7.3 °C 1024.3 hPa NNE 11.9 km/h 16.7 km/h 67% 0.0 mm FEW
18:45 13.2 °C 7.4 °C 1024.3 hPa NE 11.9 km/h 14.8 km/h 68% 0.0 mm FEW
18:50 13.1 °C 7.9 °C 1024.6 hPa NNE 13.0 km/h 16.7 km/h 71% 0.0 mm FEW
18:55 13.1 °C 7.9 °C 1024.6 hPa NE 13.0 km/h 18.5 km/h 71% 0.0 mm CLR
19:00 13.0 °C 8.1 °C 1024.6 hPa NE 14.5 km/h 20.9 km/h 72% 0.0 mm CLR
19:05 12.9 °C 7.9 °C 1024.8 hPa NE 14.0 km/h 14.8 km/h 72% 0.0 mm CLR
19:10 12.8 °C 7.9 °C 1024.8 hPa NE 11.9 km/h 20.4 km/h 72% 0.0 mm FEW
19:15 12.7 °C 7.8 °C 1024.8 hPa NE 11.9 km/h 15.6 km/h 72% 0.0 mm CLR
19:20 12.6 °C 7.5 °C 1025.0 hPa NE 11.3 km/h 16.1 km/h 71% 0.0 mm CLR
19:25 12.5 °C 7.6 °C 1025.0 hPa NNE 11.1 km/h 8.4 km/h 72% 0.0 mm CLR
19:30 12.4 °C 7.7 °C 1025.0 hPa NE 8.4 km/h 11.1 km/h 73% 0.0 mm CLR
19:35 12.2 °C 7.7 °C 1025.2 hPa NE 8.4 km/h 13.0 km/h 74% 0.0 mm CLR
19:40 12.1 °C 7.8 °C 1025.2 hPa NE 8.4 km/h 9.3 km/h 75% 0.0 mm CLR
19:45 12.0 °C 7.9 °C 1025.2 hPa NE 8.4 km/h 11.1 km/h 76% 0.0 mm CLR
19:50 11.9 °C 7.8 °C 1025.2 hPa NNE 8.7 km/h 13.0 km/h 76% 0.0 mm CLR
19:55 11.9 °C 8.0 °C 1025.2 hPa NNE 8.7 km/h 11.1 km/h 77% 0.0 mm CLR
20:00 11.7 °C 8.0 °C 1025.2 hPa NNE 9.7 km/h 11.3 km/h 78% 0.0 mm CLR
20:05 11.6 °C 8.1 °C 1025.2 hPa NNE 8.7 km/h 11.1 km/h 79% 0.0 mm CLR
20:10 11.5 °C 8.0 °C 1025.2 hPa NNE 7.6 km/h 9.5 km/h 79% 0.0 mm CLR
20:15 11.4 °C 8.1 °C 1025.2 hPa NNE 7.6 km/h 9.3 km/h 80% 0.0 mm CLR
20:20 11.4 °C 8.1 °C 1025.5 hPa NNE 6.9 km/h 9.3 km/h 80% 0.0 mm CLR
20:25 11.3 °C 8.2 °C 1025.5 hPa North 6.9 km/h 7.4 km/h 81% 0.0 mm CLR
20:30 11.2 °C 8.1 °C 1025.5 hPa NNE 4.8 km/h 8.0 km/h 81% 0.0 mm CLR
20:35 11.2 °C 8.1 °C 1025.6 hPa NNW 5.0 km/h 3.7 km/h 81% 0.0 mm CLR
20:40 11.1 °C 8.2 °C 1025.6 hPa NNW 2.3 km/h   82% 0.0 mm CLR
20:45 11.1 °C 8.2 °C 1025.6 hPa NNE 2.3 km/h 7.4 km/h 82% 0.0 mm CLR
20:50 11.1 °C 8.3 °C 1025.7 hPa North 2.3 km/h   83% 0.0 mm CLR
20:55 11.1 °C 8.3 °C 1025.7 hPa NNW 2.3 km/h   83% 0.0 mm CLR
21:00 11.0 °C 8.2 °C 1025.7 hPa Calm   3.2 km/h 83% 0.0 mm CLR
21:05 10.9 °C 8.3 °C 1025.8 hPa Calm   7.4 km/h 84% 0.0 mm CLR
21:10 11.1 °C 8.3 °C 1025.8 hPa NNE 3.2 km/h 5.6 km/h 83% 0.0 mm CLR
21:15 11.1 °C 8.3 °C 1025.8 hPa NNE 3.2 km/h 5.6 km/h 83% 0.0 mm CLR
21:20 11.1 °C 8.3 °C 1025.8 hPa NNE 3.2 km/h   83% 0.0 mm CLR
21:25 11.2 °C 8.2 °C 1025.8 hPa NNE 3.2 km/h   82% 0.0 mm CLR
21:30 11.2 °C 8.2 °C 1025.8 hPa Calm     82% 0.0 mm CLR
21:35 11.0 °C 8.1 °C 1025.8 hPa Calm     82% 0.0 mm CLR
21:40 10.9 °C 7.9 °C 1025.8 hPa Calm     82% 0.0 mm CLR
21:45 10.8 °C 8.0 °C 1025.8 hPa Calm   7.4 km/h 83% 0.0 mm CLR
21:50 10.7 °C 7.9 °C 1025.8 hPa South 2.9 km/h 3.9 km/h 83% 0.0 mm CLR
21:55 10.7 °C 8.1 °C 1025.8 hPa South 2.9 km/h 3.7 km/h 84% 0.0 mm CLR
22:00 10.7 °C 8.1 °C 1025.8 hPa South 3.2 km/h 3.2 km/h 84% 0.0 mm CLR
22:05 10.7 °C 8.1 °C 1026.0 hPa South 3.2 km/h 5.8 km/h 84% 0.0 mm CLR
22:10 10.7 °C 7.9 °C 1026.0 hPa South 2.3 km/h 3.7 km/h 83% 0.0 mm CLR
22:15 10.7 °C 7.9 °C 1026.0 hPa South 2.3 km/h   83% 0.0 mm CLR
22:20 10.7 °C 7.9 °C 1025.9 hPa South 2.3 km/h   83% 0.0 mm CLR
22:25 10.6 °C 7.8 °C 1025.9 hPa South 2.3 km/h   83% 0.0 mm CLR
22:30 10.6 °C 7.8 °C 1025.9 hPa Calm     83% 0.0 mm CLR
22:35 10.4 °C 7.4 °C 1026.0 hPa Calm   9.3 km/h 82% 0.0 mm CLR
22:40 10.2 °C 7.3 °C 1026.0 hPa SE 3.9 km/h 7.4 km/h 82% 0.0 mm CLR
22:45 9.9 °C 6.9 °C 1026.0 hPa SSE 3.9 km/h 7.4 km/h 82% 0.0 mm CLR
22:50 9.7 °C 6.9 °C 1026.0 hPa SSE 4.8 km/h 9.7 km/h 83% 0.0 mm CLR
22:55 9.5 °C 6.8 °C 1026.0 hPa SSE 5.0 km/h 8.4 km/h 83% 0.0 mm CLR
23:00 9.4 °C 6.8 °C 1026.0 hPa SSE 4.8 km/h 8.0 km/h 84% 0.0 mm CLR
23:05 9.3 °C 6.7 °C 1026.0 hPa South 5.8 km/h 9.3 km/h 84% 0.0 mm CLR
23:10 9.3 °C 6.9 °C 1026.0 hPa SSW 5.8 km/h 7.4 km/h 85% 0.0 mm CLR
23:15 9.3 °C 6.9 °C 1026.0 hPa SW 5.8 km/h 7.4 km/h 85% 0.0 mm CLR
23:20 9.3 °C 6.9 °C 1026.0 hPa SSW 6.4 km/h 8.4 km/h 85% 0.0 mm CLR
23:25 9.4 °C 7.0 °C 1026.0 hPa SW 6.4 km/h 7.4 km/h 85% 0.0 mm CLR
23:30 9.4 °C 7.0 °C 1026.0 hPa SW 5.0 km/h 7.4 km/h 85% 0.0 mm CLR
23:35 9.4 °C 7.0 °C 1026.1 hPa SSW 5.0 km/h 7.4 km/h 85% 0.0 mm CLR
23:40 9.4 °C 7.0 °C 1026.1 hPa SW 4.7 km/h 9.3 km/h 85% 0.0 mm CLR
23:45 9.5 °C 7.1 °C 1026.1 hPa SW 4.7 km/h 9.3 km/h 85% 0.0 mm CLR
23:50 9.5 °C 7.1 °C 1026.0 hPa SW 5.0 km/h 9.3 km/h 85% 0.0 mm CLR
23:55 9.6 °C 7.2 °C 1026.0 hPa SSW 5.0 km/h 9.3 km/h 85% 0.0 mm CLR
Murcia-Puente Tocinos, España
Compliments of Weather Underground - 2.75 mb

La estación de MeteoMurcia.com, publica sus datos en los siguientes proyectos:

Weather Underground PWS IMURCIAP2 Meteoclimatic www.awekas.at

W3Counter
Web Analytics